TimeEST,TemperatureF,Dew PointF,Humidity,Sea Level PressureIn,VisibilityMPH,Wind Direction,Wind SpeedMPH,Gust SpeedMPH,PrecipitationIn,Events,Conditions,WindDirDegrees,DateUTC
12:51 AM,30.2,25.0,81,30.04,10.0,WNW,5.8,17.3,N/A,,Overcast,290,2013-02-03 05:51:00
1:51 AM,32.0,23.0,69,30.02,10.0,WSW,5.8,-,N/A,,Overcast,250,2013-02-03 06:51:00
2:51 AM,28.4,24.1,84,30.01,10.0,SW,4.6,-,N/A,,Overcast,230,2013-02-03 07:51:00
3:51 AM,28.4,24.1,84,29.99,10.0,SW,4.6,-,N/A,,Overcast,220,2013-02-03 08:51:00
4:51 AM,28.4,24.8,86,29.94,10.0,SSW,5.8,-,N/A,,Overcast,210,2013-02-03 09:51:00
5:31 AM,28.4,23.0,80,29.93,10.0,SSW,5.8,-,N/A,,Overcast,200,2013-02-03 10:31:00
5:51 AM,28.4,22.1,77,29.95,10.0,SSW,6.9,-,N/A,,Overcast,200,2013-02-03 10:51:00
6:51 AM,28.4,24.8,86,29.94,10.0,SSW,5.8,-,N/A,,Overcast,200,2013-02-03 11:51:00
6:59 AM,42.8,23.0,46,29.91,10.0,SSW,5.8,-,N/A,,Overcast,210,2013-02-03 11:59:00
7:06 AM,37.4,23.0,56,29.91,10.0,SW,8.1,-,N/A,,Overcast,230,2013-02-03 12:06:00
7:51 AM,28.4,23.0,80,29.91,10.0,SW,5.8,-,N/A,,Overcast,230,2013-02-03 12:51:00
8:20 AM,28.4,23.0,80,29.92,10.0,WSW,5.8,-,N/A,,Overcast,240,2013-02-03 13:20:00
8:51 AM,28.4,23.0,80,29.95,10.0,WSW,6.9,-,N/A,,Overcast,240,2013-02-03 13:51:00
9:51 AM,28.4,23.0,80,29.96,5.0,West,12.7,19.6,0.00,Snow,Light Snow,260,2013-02-03 14:51:00
10:51 AM,30.9,19.0,61,29.96,6.0,West,8.1,18.4,0.00,Snow,Light Snow,260,2013-02-03 15:51:00
11:07 AM,28.4,21.2,74,29.94,1.8,West,10.4,-,0.00,Snow,Light Snow,260,2013-02-03 16:07:00
11:28 AM,28.4,21.2,74,29.94,6.0,West,15.0,24.2,0.00,,Overcast,260,2013-02-03 16:28:00
11:51 AM,28.4,21.2,74,29.96,7.0,West,11.5,20.7,0.00,,Overcast,270,2013-02-03 16:51:00
12:51 PM,26.6,19.0,73,29.96,10.0,West,10.4,16.1,0.00,,Overcast,260,2013-02-03 17:51:00
1:51 PM,26.6,19.9,76,29.96,10.0,Variable,5.8,-,N/A,,Overcast,0,2013-02-03 18:51:00
2:51 PM,28.4,18.0,65,29.98,10.0,West,10.4,16.1,N/A,,Overcast,260,2013-02-03 19:51:00
3:51 PM,28.4,18.0,65,30.01,10.0,WNW,8.1,20.7,N/A,,Overcast,290,2013-02-03 20:51:00
4:08 PM,32.0,17.6,55,30.00,10.0,West,11.5,16.1,N/A,,Overcast,260,2013-02-03 21:08:00
4:51 PM,30.9,19.0,61,30.04,10.0,West,10.4,-,N/A,,Overcast,260,2013-02-03 21:51:00
5:44 PM,26.6,21.2,80,30.04,1.0,West,13.8,19.6,0.00,Snow,Light Snow,270,2013-02-03 22:44:00
5:51 PM,26.6,21.2,80,30.07,1.0,West,11.5,19.6,0.00,Snow,Light Snow,260,2013-02-03 22:51:00
6:35 PM,28.4,21.2,74,30.06,5.0,WSW,5.8,-,N/A,Snow,Light Snow,250,2013-02-03 23:35:00
6:42 PM,28.4,21.2,74,30.07,6.0,West,6.9,-,0.00,Snow,Light Snow,260,2013-02-03 23:42:00
6:49 PM,26.6,23.0,86,30.07,7.0,West,4.6,-,0.00,Snow,Light Snow,260,2013-02-03 23:49:00
6:51 PM,26.6,23.0,86,30.10,8.0,West,4.6,-,0.00,Snow,Light Snow,260,2013-02-03 23:51:00
7:51 PM,28.0,21.0,75,30.12,10.0,WSW,10.4,-,0.00,,Overcast,250,2013-02-04 00:51:00
8:51 PM,28.0,21.0,75,30.14,7.0,WSW,8.1,-,0.00,Snow,Light Snow,250,2013-02-04 01:51:00
9:51 PM,28.0,17.1,63,30.16,7.0,WSW,9.2,17.3,0.00,,Overcast,250,2013-02-04 02:51:00
10:51 PM,24.8,17.6,74,30.16,10.0,SW,6.9,-,N/A,,Overcast,220,2013-02-04 03:51:00
11:51 PM,24.8,17.6,74,30.16,10.0,SW,4.6,-,N/A,,Scattered Clouds,230,2013-02-04 04:51:00